This is the latest recevied weather packets stored in our database for station/object N4AR. If no packets are shown the sender has not sent any weather packets the latest 1 day(s).
| Time | Temp. | Humidity | Pressure | Rain* | Wind** | Luminosity | Snow |
|---|---|---|---|---|---|---|---|
| 1778026086 | 23.89° C | 48% | 1013.7 hPa | 0 mm | 0 m/s | 1 W/m² | - |
| 1778025784 | 24.44° C | 47% | 1013.6 hPa | 0 mm | 0.45 m/s, 78° | 1 W/m² | - |
| 1778025480 | 24.44° C | 46% | 1013.4 hPa | 0 mm | 0.89 m/s, 90° | 3 W/m² | - |
| 1778025178 | 24.44° C | 46% | 1013.4 hPa | 0 mm | 0 m/s | 4 W/m² | - |
| 1778024875 | 25° C | 45% | 1013.5 hPa | 0 mm | 0.45 m/s, 80° | 5 W/m² | - |
| 1778024573 | 25° C | 45% | 1013.6 hPa | 0 mm | 0.45 m/s, 92° | 8 W/m² | - |
| 1778024269 | 25° C | 44% | 1013.5 hPa | 0 mm | 0 m/s | 11 W/m² | - |
| 1778023967 | 25° C | 44% | 1013.5 hPa | 0 mm | 0 m/s | 14 W/m² | - |
| 1778023664 | 25.56° C | 43% | 1013.5 hPa | 0 mm | 0.89 m/s, 74° | 18 W/m² | - |
| 1778023361 | 25.56° C | 43% | 1013.4 hPa | 0 mm | 0.89 m/s, 74° | 22 W/m² | - |
| 1778023057 | 25.56° C | 43% | 1013.2 hPa | 0 mm | 0.45 m/s, 74° | 26 W/m² | - |
| 1778022757 | 26.11° C | 42% | 1013.3 hPa | 0 mm | 0.89 m/s, 90° | 34 W/m² | - |
| 1778022455 | 26.11° C | 42% | 1013.1 hPa | 0 mm | 0.45 m/s, 87° | 44 W/m² | - |
| 1778022151 | 26.11° C | 42% | 1013.4 hPa | 0 mm | 0.45 m/s, 92° | 53 W/m² | - |
| 1778021848 | 26.67° C | 41% | 1013.2 hPa | 0 mm | 0.45 m/s, 61° | 93 W/m² | - |
| 1778021545 | 26.67° C | 40% | 1013.3 hPa | 0 mm | 0.45 m/s, 72° | 63 W/m² | - |
| 1778021240 | 26.67° C | 40% | 1013.1 hPa | 0 mm | 0.45 m/s, 106° | 146 W/m² | - |
| 1778020938 | 26.67° C | 40% | 1013.3 hPa | 0 mm | 0 m/s | 124 W/m² | - |
| 1778020635 | 26.67° C | 40% | 1013.1 hPa | 0 mm | 0.45 m/s, 91° | 137 W/m² | - |
| 1778020331 | 26.67° C | 40% | 1013.1 hPa | 0 mm | 0.45 m/s, 91° | 96 W/m² | - |
| 1778020027 | 26.67° C | 39% | 1013.4 hPa | 0 mm | 1.79 m/s, 327° | 108 W/m² | - |
| 1778019723 | 26.67° C | 40% | 1013.3 hPa | 0 mm | 0 m/s | 90 W/m² | - |
| 1778019421 | 26.67° C | 39% | 1013.4 hPa | 0 mm | 0.89 m/s, 81° | 76 W/m² | - |
| 1778019117 | 27.22° C | 39% | 1013.5 hPa | 0 mm | 0.45 m/s, 75° | 87 W/m² | - |
| 1778018814 | 27.22° C | 38% | 1013.5 hPa | 0 mm | 0 m/s | 89 W/m² | - |
* Rain latest hour (hover to see other rain measurements)
** Current wind speed in m/s (hover to see current wind gust speed)